Location: Patchogue Highlands
(40.7826°N, 73.0271°W)
Time: 03:36:10
(UTC+00:00)

Daily predictions for brighter satellites

Satellite Brightness Start Highest point End
(mag) Time Altitude Azimuth Time Altitude Azimuth Time Altitude Azimuth
CENTAUR R/B 3.4 00:31:31 10° NW 00:39:52 87° ENE 00:48:52 10° SSE
Cosmos 1825 Rocket 3.5 00:39:44 10° S 00:44:03 77° E 00:48:23 10° N
Cosmos-2242 3.0 00:39:55 10° N 00:44:13 83° E 00:48:27 10° S
RESURS DK-1 4.3 00:44:32 10° SE 00:46:10 12° ESE 00:47:48 10° ENE
Cosmos 1634 Rocket 4.1 00:43:56 10° N 00:50:12 67° E 00:56:24 10° SSE
In-Cosmos 22 Rocket 4.1 00:46:04 10° S 00:51:22 87° E 00:56:44 10° N
USA 238 DEB 4.1 00:47:11 10° NW 00:54:32 79° WSW 01:02:09 10° SSE
USA 238 4.1 00:47:17 10° NW 00:54:38 80° WSW 01:02:16 10° SSE
Cosmos 44 Rocket 4.0 00:51:11 10° S 00:55:49 35° ESE 01:00:33 10° NE
IRIS 4.0 00:53:24 10° W 00:55:53 82° N 00:59:23 10° E
Cosmos 1633 4.5 00:55:19 10° ESE 00:57:11 14° E 00:59:03 10° NE
ISS -0.9 00:57:00 10° NNW 00:58:42 13° N 01:00:23 10° NNE
IRS-1A Rocket 4.3 00:57:08 10° SSE 01:02:41 75° ENE 01:08:12 10° N
Ariane Rocket 3.0 00:58:41 10° SSE 01:03:43 71° ENE 01:08:47 10° N
ERS-2 2.0 01:02:11 10° NNE 01:05:50 67° ESE 01:09:26 10° S
Helios 1A Rocket 3.8 01:03:44 10° S 01:07:38 50° W 01:11:35 10° NNW
SEDSat Delta rocket 4.4 01:05:05 10° SSW 01:07:45 17° SSE 01:09:40 13° SE
OAO 2 Rocket 3.8 01:05:42 10° WSW 01:10:27 43° S 01:14:31 13° ESE
Cosmos 2221 3.1 01:12:02 10° N 01:16:05 39° ENE 01:19:20 15° SE
MOS 1 4.4 01:10:29 10° SSE 01:16:10 82° WSW 01:21:51 10° NNW
Cosmos 1242 Rocket 2.5 01:13:05 10° N 01:16:41 66° E 01:19:51 12° SSE
USA 307 3.2 01:13:58 10° NW 01:18:11 59° SW 01:21:34 15° SSE
BREEZE-M DEB (TANK) 2.9 01:15:45 10° SW 01:18:40 55° SE 01:27:04 10° ENE
Cosmos 1697 Rocket 2.9 01:17:44 10° NNW 01:23:20 57° ENE 01:27:44 16° SE
Meteor 2-13 Rocket 4.4 01:20:15 10° S 01:26:22 84° E 01:32:30 10° N
Terra 3.8 01:25:50 10° E 01:28:12 14° ENE 01:30:44 10° NNE
Cosmos 2082 Rocket 2.4 01:23:18 10° S 01:28:39 48° ESE 01:34:04 10° NE
ERBS 4.1 01:28:24 10° NNW 01:30:58 21° NE 01:32:57 13° E
IGS 5A 3.4 01:27:47 12° SSE 01:31:33 89° ENE 01:35:43 10° NNW
Hubble Space Telescope 2.7 01:29:43 10° SSW 01:31:47 13° S 01:31:56 13° S
Cosmos 1833 Rocket 2.9 01:26:49 10° SSW 01:32:27 76° WNW 01:38:07 10° NNE
SPOT 3 Rocket 3.6 01:28:49 14° SSE 01:33:19 71° ENE 01:38:32 10° N
Cosmos 1606 3.2 01:30:46 10° N 01:34:21 41° ENE 01:36:14 23° SE
USA 305 3.9 01:30:57 10° WNW 01:34:50 37° SW 01:37:38 17° SSE
USA 308 3.7 01:30:58 10° WNW 01:34:58 42° SW 01:37:46 18° SSE
Cosmos 773 Rocket 3.9 01:32:25 10° S 01:37:36 69° ESE 01:42:46 10° NNE
Cosmos 2279 Rocket 4.2 01:40:24 10° NNW 01:46:34 72° W 01:52:43 10° S
Cosmos 2151 3.7 01:47:17 26° SE 01:48:42 34° E 01:52:32 10° NNE
Landsat 7 4.1 01:49:11 14° S 01:53:10 64° WSW 01:57:54 10° NNW
Cosmos 2058 4.0 01:51:21 10° SSW 01:55:20 44° WNW 01:59:21 10° N
COSMOS 2406 4.0 01:50:09 10° SW 01:55:41 55° WNW 02:01:18 10° NNE
Cosmos 1842 Rocket 3.7 01:51:49 10° N 01:56:18 76° W 01:59:20 20° S
GP-B 4.0 01:52:22 10° NNE 01:56:21 32° E 01:57:26 28° ESE
Meteor 2-3 Rocket 4.3 01:54:12 25° SE 01:56:44 38° E 02:01:55 10° NNE
Cosmos 1825 4.4 01:53:39 10° SW 01:56:46 25° WNW 01:59:55 10° NNW
Cosmos 2369 3.7 01:52:30 10° NNW 01:58:11 77° ENE 02:01:22 27° SSE
ERS-1 Rocket 3.5 02:00:52 28° ESE 02:03:01 44° ENE 02:07:46 10° N
Spot 2 Rocket 3.5 02:01:35 28° SSE 02:04:13 66° ENE 02:09:18 10° N
Cosmos 1076 Rocket 3.5 02:02:52 18° S 02:06:03 82° W 02:10:25 10° N
Cosmos 2026 Rocket 4.5 02:04:37 27° SE 02:07:35 43° E 02:13:30 10° NNE
ATLAS 2AS CENTAUR R/B 3.4 02:00:18 10° SW 02:08:10 66° NW 02:15:54 10° NNE
Cosmos 1980 Rocket 2.2 02:03:51 10° NNW 02:09:28 69° ENE 02:12:06 32° SE
Resurs 01 Rocket 3.1 02:08:50 11° SSW 02:12:32 33° W 02:16:34 10° NNW
Nadezhda 4 Rocket 4.0 02:07:55 11° S 02:13:55 80° W 02:20:10 10° N
Cosmos 2322 Rocket 4.0 02:12:38 10° N 02:16:34 19° NE 02:19:11 14° E
Cosmos 1538 Rocket 3.9 02:13:44 17° SSW 02:17:43 79° ESE 02:22:56 10° NNE
Cosmos 158 Rocket 4.0 02:18:29 34° SSE 02:20:33 58° ESE 02:25:41 10° NNE
RESURS DK-1 3.0 02:19:35 10° SW 02:23:40 55° WNW 02:27:46 10° NNE
Cosmos 2098 Rocket 3.5 02:22:42 27° SW 02:23:45 37° WNW 02:26:40 10° N
USA 267 3.1 02:19:08 10° NE 02:25:41 74° SE 02:32:13 10° SW
GENESIS II 4.4 02:22:01 10° NW 02:25:51 59° WSW 02:26:31 49° SSW
USA 245 4.5 02:22:59 24° S 02:26:26 60° WSW 02:31:19 10° NNW
Meteor 2-19 Rocket 4.3 02:22:44 23° S 02:26:44 88° E 02:32:49 10° N
Cosmos 1271 Rocket 3.3 02:24:07 10° N 02:27:55 42° ENE 02:28:02 42° E
BREEZE-M DEB (TANK) 4.2 02:25:13 10° NW 02:29:07 74° NNE 02:36:57 21° ESE
ATLAS 3B R/B 3.0 02:22:06 10° NNW 02:29:13 67° NE 02:32:46 33° SE
SPOT 1/Viking Rocket 4.4 02:28:26 21° SSW 02:31:35 44° W 02:36:34 10° NNW
Cosmos 1633 4.2 02:29:09 15° SW 02:31:36 31° WNW 02:34:51 10° NNW
ISS -1.6 02:33:51 10° NNW 02:36:30 21° NNE 02:37:38 18° NE
Cosmos 1428 Rocket 4.4 02:37:00 34° S 02:39:50 79° E 02:45:59 10° N
ARIANE 5 R/B 2.9 02:38:33 43° SSW 02:39:52 64° WSW 02:44:20 10° NNW
Cosmos 1933 3.1 02:36:38 10° N 02:40:42 89° E 02:41:03 74° S
SL-16 R/B 3.1 02:36:48 10° N 02:42:02 36° ENE 02:43:41 30° E
SPOT 5 2.6 02:44:08 55° SSW 02:44:57 71° WSW 02:49:18 10° NNW
Cosmos 1553 Rocket 4.3 02:41:36 10° N 02:47:25 46° ENE 02:48:47 40° ESE
Cosmos 304 Rocket 3.8 02:42:59 10° NNW 02:47:45 61° ENE 02:48:21 55° ESE
USA 234 4.1 02:53:41 19° E 02:58:01 43° NNE 03:04:08 10° NW
Meteor 1-26 Rocket 4.3 02:56:50 10° NNW 03:02:50 77° W 03:04:29 49° S
Cosmos 371 Rocket 3.8 02:59:45 10° NNW 03:04:23 49° WSW 03:05:07 45° SW
Cosmos 923 Rocket 3.9 03:03:16 55° SSW 03:04:28 88° ESE 03:09:51 10° NNE
Terra 1.9 03:04:43 57° SW 03:05:23 65° WSW 03:10:08 10° NNW
ERBS 4.3 03:04:07 10° WNW 03:05:39 23° W 03:05:39 23° W
Cosmos 1862 4.3 03:12:08 39° NE 03:12:08 39° NE 03:14:54 10° NNE
Cosmos 2082 Rocket 4.3 03:08:22 10° WSW 03:12:59 25° NW 03:17:38 10° N
S3M 4.3 03:08:36 10° N 03:14:50 52° ENE 03:15:54 47° ESE
Cosmos 2278 4.4 03:09:50 10° NW 03:15:07 42° WSW 03:16:22 37° SW
Cosmos 1766 Rocket 3.7 03:18:52 65° W 03:18:56 65° W 03:23:19 10° N
Meteor 2-14 Rocket 4.3 03:17:55 58° S 03:19:16 86° E 03:25:27 10° N
Cosmos 2056 Rocket 4.2 03:14:48 10° N 03:19:53 41° ENE 03:20:20 40° ENE
Cosmos 1812 3.6 03:16:32 10° N 03:19:23 46° NNE 03:19:23 46° NNE
Cosmos 1782 3.7 03:19:46 10° NNW 03:23:15 45° WNW 03:23:15 45° WNW
Cosmos 2333 Rocket 4.1 03:21:42 10° N 03:25:42 19° NE 03:27:39 16° ENE
Gbstr 26 Del rocket 4.1 03:24:26 10° NW 03:28:04 36° NNE 03:28:19 35° NE
Cosmos 2360 Rocket 2.9 03:26:59 10° N 03:32:18 41° ENE 03:33:01 39° ENE
Cosmos 1328 Rocket 3.9 03:30:06 10° NNW 03:34:03 61° WNW 03:34:03 61° WNW
Cosmos 2112 Rocket 4.1 03:38:50 65° WSW 03:39:23 71° WNW 03:44:41 10° NNE
Cosmos 1371 Rocket 4.0 03:35:33 10° NNW 03:40:56 71° ENE 03:40:56 71° ENE
Cosmos 1680 Rocket 3.9 03:40:31 49° WSW 03:41:30 58° WNW 03:46:42 10° NNE
Cosmos 1151 Rocket 4.2 03:41:03 10° NNW 03:44:42 36° W 03:44:42 36° W
Cosmos 1980 Rocket 4.2 03:49:34 10° WNW 03:52:48 16° W 03:53:53 15° WSW
BREEZE-M DEB (TANK) 3.9 03:49:42 10° WNW 03:54:19 59° SSW 03:55:45 52° S
Cosmos 2322 Rocket 2.2 03:55:34 10° NNW 04:00:59 69° W 04:00:59 69° W
Cosmos 1500 Rocket 4.4 04:05:32 48° N 04:05:32 48° N 04:08:46 10° N
ISS -0.6 04:10:16 10° NW 04:10:34 12° NW 04:10:34 12° NW
Cosmos 2315 Rocket 3.8 04:10:56 10° N 04:17:16 85° E 04:17:33 81° SE
ATLAS 3B R/B 4.0 04:13:41 10° WNW 04:19:26 26° WSW 04:20:00 26° WSW
Cosmos 292 Rocket 4.3 04:14:41 10° NNW 04:18:26 55° N 04:18:26 55° N
Cosmos 2237 4.4 04:15:13 10° NNW 04:20:24 62° W 04:20:24 62° W
Meteor 1-27 Rocket 3.7 04:17:12 10° NNW 04:22:32 75° WNW 04:22:32 75° WNW
COSMOS 2428 3.8 04:18:20 10° N 04:23:32 35° ENE 04:24:20 33° ENE
Cosmos 2333 4.4 04:18:03 10° NNW 04:23:31 59° ENE 04:23:31 59° ENE
Cosmos 2228 Rocket 4.1 04:19:30 10° N 04:22:34 45° N 04:22:34 45° N
SL-16 R/B 3.3 04:21:03 10° NW 04:25:32 32° W 04:25:32 32° W
Cosmos 2219 Rocket 2.8 04:23:58 10° NNW 04:29:22 46° ENE 04:29:34 46° ENE
Thor Agena Rocket 4.4 04:31:05 10° NNE 04:34:44 39° ENE 04:34:44 39° ENE
USA 234 3.2 04:41:00 65° WSW 04:41:00 65° WSW 04:47:20 10° NW
COSMOS 2455 2.8 04:44:29 81° NE 04:44:29 81° NE 04:50:13 10° NNE
Sich 1 4.2 04:45:43 41° N 04:45:43 41° N 04:48:39 10° N
Cosmos 489 Rocket 4.4 04:48:18 81° E 04:48:18 81° E 04:54:33 10° NNE
BREEZE-M DEB (TANK) 3.9 04:36:48 10° WSW 04:49:01 87° NNW 04:52:58 10° ENE
Nimbus 7 Rocket 4.4 04:46:02 10° NNE 04:52:05 78° WNW 04:52:08 78° W
Cosmos 1452 Rocket 3.8 04:47:40 10° NNW 04:52:03 63° NNW 04:52:03 63° NNW
Meteor 1-20 Rocket 4.4 04:53:51 65° NW 04:53:51 65° NW 04:59:05 10° N
ALOS 2 4.2 04:56:16 29° NW 04:56:16 29° NW 04:58:50 10° NNW
Cosmos 1745 Rocket 4.2 05:00:52 56° E 05:00:52 56° E 05:06:55 10° NNE
Meteor 1-18 Rocket 4.4 04:55:56 10° N 05:01:37 70° ENE 05:01:37 70° ENE
Geosat 4.3 05:05:50 63° N 05:05:50 63° N 05:10:09 10° NNW
ATLAS 5 CENTAUR R/B 3.4 05:04:50 10° NNW 05:10:06 39° NE 05:12:56 26° E
Cosmos 2333 Rocket 2.5 05:04:54 10° NNW 05:09:38 58° WNW 05:09:38 58° WNW
Cosmos 2360 Rocket 3.7 05:11:22 10° NW 05:14:46 25° W 05:14:46 25° W
Lacrosse 5 3.9 05:18:45 18° E 05:18:45 18° E 05:20:30 10° ENE
SL-16 R/B 4.5 05:15:03 13° E 05:18:41 21° ENE 05:23:10 10° NNE
Resurs 1-4 Rocket 3.9 05:18:40 10° NE 05:22:21 19° E 05:22:21 19° E
Cosmos 1110 Rocket 4.3 05:19:36 10° NNW 05:24:10 66° NNW 05:24:10 66° NNW
Nadezhda 1 Rocket 3.9 05:18:33 10° N 05:25:00 81° E 05:25:20 78° ESE
Cosmos 2322 4.3 05:20:07 10° NNW 05:24:37 47° WNW 05:24:37 47° WNW
Cosmos 1386 Rocket 4.4 05:26:53 84° S 05:27:06 89° ESE 05:33:34 10° N
NOSS 3-1 (C) 4.1 05:22:18 10° NW 05:30:02 70° WSW 05:31:18 62° SSW
Meteor 1-14 Rocket 4.3 05:33:56 71° NW 05:33:56 71° NW 05:39:08 10° N
Cosmos 1331 Rocket 4.3 05:29:47 10° NNW 05:34:07 61° NNW 05:34:07 61° NNW
Cosmos 2297 Rocket 2.6 05:37:04 53° E 05:37:04 53° E 05:42:06 10° NNE
USA 229 DEB 3.8 05:34:02 10° NW 05:41:29 88° WSW 05:43:12 59° SSE
USA 229 3.8 05:34:07 10° NW 05:41:34 89° WSW 05:43:21 58° SSE
Cosmos 2237 Rocket 2.7 05:38:10 10° NNW 05:43:45 54° ENE 05:44:36 50° E
Cosmos 2227 Rocket 2.7 05:47:43 50° E 05:47:43 50° E 05:52:51 10° NNE
ASTEX 1 4.0 05:50:13 48° ENE 05:50:13 48° ENE 05:54:48 10° N
Meteor 2-4 Rocket 4.1 05:54:42 10° NNW 06:00:14 56° W 06:00:14 56° W
CZ-2D R/B 2.8 05:55:41 10° NNE 06:00:48 43° E 06:01:02 42° ESE
Cosmos 1269 Rocket 4.1 06:01:46 72° NW 06:01:46 72° NW 06:06:45 10° NNE
Cosmos 1869 Rocket 4.3 06:02:38 50° NE 06:02:38 50° NE 06:06:16 10° NNE
NOSS 3-1 (A) 4.1 05:54:10 10° NW 06:01:56 71° WSW 06:04:02 54° S
ADEOS II 3.8 05:58:56 10° NE 06:02:51 21° E 06:03:49 20° ESE
Cosmos 1743 4.5 06:04:42 29° ENE 06:04:42 29° ENE 06:07:07 10° NNE
Cosmos 1340 Rocket 4.3 06:07:38 33° NNW 06:07:38 33° NNW 06:10:00 10° N
SL-16 R/B 3.8 06:02:25 10° N 06:07:23 31° ENE 06:12:02 11° ESE
COSMOS 2428 3.9 06:02:39 10° NW 06:06:19 30° WNW 06:06:19 30° WNW
Cosmos 2219 Rocket 3.8 06:08:34 10° NW 06:11:15 21° WNW 06:11:15 21° WNW
Cosmos 2263 Rocket 4.4 06:12:47 12° ESE 06:14:29 14° E 06:17:17 10° ENE
Helios 1A 3.7 06:17:21 49° NNW 06:17:21 49° NNW 06:20:28 10° NNW
Timation 1 Rocket 4.3 06:15:47 66° SE 06:16:15 69° ESE 06:22:12 10° NNE
Okean 3 4.0 06:16:04 10° N 06:19:37 57° NNE 06:19:37 57° NNE
Okean 1-7 4.0 06:18:05 10° NNW 06:20:56 38° NW 06:20:56 38° NW
Cosmos 1302 Rocket 4.3 06:19:18 10° NNW 06:23:41 53° WNW 06:23:41 53° WNW
Cosmos 1992 Rocket 4.5 06:19:25 10° NNW 06:24:36 57° ENE 06:25:51 45° ESE
Cosmos 909 Rocket 4.2 06:32:17 55° SW 06:33:48 77° WNW 06:41:15 10° NNE
Cosmos 2219 3.4 06:34:37 56° W 06:35:21 60° WNW 06:41:03 10° NNE
UNK 3.8 06:36:39 67° ESE 06:37:02 71° ENE 06:41:41 10° N
Helios 1B rocket 2.9 06:34:57 10° NNE 06:38:41 55° E 06:38:41 55° E
Cosmos 1066 Rocket 4.3 06:35:25 10° NNW 06:41:13 64° W 06:41:46 61° SW
Cosmos 1842 4.4 06:43:03 10° N 06:46:38 36° ENE 06:47:07 34° E
Timation 2 Rocket 3.9 06:46:12 56° WSW 06:47:23 71° WNW 06:53:28 10° NNE
Cosmos 2084 Rocket 3.7 06:49:07 10° NW 06:52:38 59° NW 06:52:38 59° NW
IDEFIX/ARIANE 42P 3.8 06:48:50 10° NNE 06:53:29 33° E 06:55:37 24° SE
ATLAS 5 CENTAUR R/B 2.9 06:49:19 10° NW 06:54:21 41° WSW 06:54:21 41° WSW
Cosmos 2082 3.6 06:54:29 59° SSW 06:55:39 88° WNW 07:01:26 10° NNE
Cosmos 2251 Rocket 3.4 06:56:04 64° SSW 06:56:54 88° WNW 07:02:14 10° NNE
Meteor 1-11 Rocket 4.4 06:56:39 36° W 06:57:17 37° WNW 07:02:23 10° N
Cosmos 1536 4.4 06:58:20 25° NW 06:58:20 25° NW 07:00:59 10° NNW
Lacrosse 5 2.3 06:57:56 45° W 06:59:03 54° NW 07:04:01 10° NE
Cosmos 2184 Rocket 3.9 06:59:24 49° SSW 07:01:12 79° W 07:07:30 10° N
SL-16 R/B 2.5 07:00:09 48° SSW 07:01:43 65° WSW 07:07:53 10° NNW
Resurs 1-4 Rocket 2.4 06:57:24 10° N 07:02:33 52° WNW 07:03:26 46° WSW
Cosmos 1241 Rocket 4.5 07:05:27 45° SW 07:07:40 86° WNW 07:14:14 10° NNE
Cosmos 2154 Rocket 4.0 07:05:52 39° S 07:08:19 81° E 07:14:32 10° N
Cosmos 1356 Rocket 4.4 07:08:36 33° SE 07:09:34 39° E 07:13:19 10° NNE
Cosmos 1733 Rocket 3.0 07:13:20 65° WSW 07:13:46 71° W 07:18:14 10° N
SL-8 R/B 3.7 07:15:14 56° S 07:15:50 61° SE 07:20:35 10° ENE
Cosmos 1140 Rocket 4.0 07:14:54 34° SSE 07:16:53 53° ESE 07:21:59 10° NNE
AQUA 4.1 07:16:18 10° N 07:20:54 50° WNW 07:21:46 44° WSW
Cosmos 2297 Rocket 3.8 07:18:52 19° W 07:20:58 23° NW 07:25:25 10° N
NPP 4.2 07:17:35 10° N 07:22:41 44° WNW 07:24:07 36° WSW
Cosmos 2074 Rocket 4.3 07:23:14 37° SW 07:25:12 49° WNW 07:31:14 10° N
Cosmos 2237 Rocket 3.7 07:23:14 10° NW 07:26:22 20° W 07:26:22 20° W
ADEOS Rocket 3.0 07:29:11 38° SW 07:30:44 48° W 07:36:03 10° NNW
ARIANE 5 R/B 3.9 07:26:32 10° NNE 07:31:14 34° E 07:35:20 13° SSE
Okean 2 3.5 07:27:10 10° N 07:31:21 76° E 07:33:05 34° SSE
Cosmos 2227 Rocket 3.7 07:29:32 20° W 07:31:44 25° NW 07:36:19 10° N
CZ-2D R/B 3.5 07:36:15 10° N 07:40:35 26° WNW 07:42:21 22° W
Meteor 1-28 Rocket 3.2 07:41:29 52° SW 07:42:01 60° W 07:45:43 10° NNW
ADEOS II 2.5 07:37:43 10° N 07:42:45 48° WNW 07:44:45 32° WSW
Meteor 2-9 Rocket 4.4 07:43:10 34° SW 07:45:05 49° WNW 07:50:16 10° N
SL-8 Rocket 4.4 07:40:18 15° S 07:45:22 62° E 07:51:27 10° NNE
IRS-1D 3.6 07:41:44 10° N 07:46:37 58° WNW 07:48:42 33° SW
NOSS 3-3 (A) 3.8 07:44:35 31° SSW 07:47:29 83° ESE 07:53:52 10° NE
NOSS 3-3 (C) 3.8 07:44:42 31° SSW 07:47:35 82° ESE 07:53:57 10° NE
Cosmos 2227 4.2 07:45:48 27° SSW 07:48:56 76° ESE 07:54:34 10° NNE
Cosmos 1782 Rocket 4.2 07:46:19 19° SSE 07:49:15 51° E 07:53:29 10° NNE
IRS-1C 4.4 07:45:58 10° NNE 07:51:17 67° ESE 07:55:10 19° S
SL-16 R/B 2.7 07:46:20 10° NW 07:51:33 39° WSW 07:53:48 28° SSW
Iridium 4 Rocket 4.0 07:47:21 10° NNW 07:52:44 53° W 07:55:47 26° SSW
Cosmos 2263 Rocket 2.2 07:54:29 28° SSW 07:57:38 77° WNW 08:03:21 10° NNE
Cosmos 1975 3.8 07:57:17 29° W 07:58:07 31° WNW 08:01:49 10° NNW
ATLAS CENTAUR R/B 1.4 07:57:40 32° S 07:59:12 61° ESE 08:03:04 10° NE
CZ-4C R/B 3.1 07:55:46 10° NW 08:03:16 87° ENE 08:11:51 10° SSE
Cosmos 407 Rocket 3.8 08:01:06 27° SW 08:03:50 53° WNW 08:09:00 10° N
Cosmos 1461 3.7 08:05:09 25° WSW 08:07:24 45° NW 08:11:42 10° NNE
Cosmos 1707 2.9 08:04:32 10° NNW 08:08:15 49° W 08:10:01 27° SSW
Cosmos 2344 3.6 08:04:50 22° SW 08:10:03 72° NW 08:17:46 10° NNE
ALOS 4.3 08:07:17 10° NE 08:11:10 25° E 08:15:01 10° SSE
GEOS 3 Rocket 4.1 08:05:53 10° SE 08:11:11 66° NE 08:16:28 10° NNW
Cosmos 2341 Rocket 4.0 08:06:43 19° SSW 08:11:16 66° W 08:17:28 10° N
Spot 1 3.8 08:08:52 10° S 08:13:04 77° WSW 08:17:10 10° NNW
Cosmos 2218 Rocket 4.1 08:07:37 11° S 08:13:44 87° E 08:20:07 10° N
In-Cosmos 22 4.2 08:08:51 10° NNW 08:14:35 67° W 08:20:14 10° S
Cosmos 1238 Rocket 4.1 08:18:43 16° W 08:19:05 17° WNW 08:21:17 10° NNW
SL-08 R/B 3.5 08:15:23 10° SSE 08:20:19 83° ENE 08:25:18 10° NNW
Cosmos 1733 3.8 08:18:03 10° S 08:21:49 56° E 08:25:35 10° NNE
Cosmos 1766 4.3 08:19:58 10° SSE 08:23:39 43° E 08:27:22 10° NNE
Cosmos 1300 Rocket 4.0 08:25:29 10° S 08:29:44 63° E 08:34:03 10° NNE
Cosmos 1943 3.2 08:25:35 10° NNW 08:31:18 79° WSW 08:36:58 10° SSE
IRS-P3 4.4 08:26:36 10° N 08:31:48 54° WNW 08:36:17 14° SW
BREEZE-M DEB (TANK) 3.7 08:30:27 15° W 08:32:15 32° NNW 08:34:26 10° NE
IDEFIX/ARIANE 42P 3.6 08:28:30 10° N 08:32:58 30° WNW 08:36:25 15° WSW
Cosmos 1975 Rocket 3.0 08:31:15 10° NNW 08:35:39 71° W 08:39:57 10° S
USA 290 4.1 08:33:02 10° N 08:36:03 35° ENE 08:39:03 10° SE
SL-24 R/B - RUBIN 2 4.2 08:31:56 10° NNW 08:36:52 66° NE 08:41:19 10° SE
CZ-3 Stage 3 3.3 08:34:44 10° S 08:36:55 16° SE 08:40:53 10° ESE
CZ-2C R/B 2.4 08:33:27 10° NNE 08:38:03 77° ESE 08:42:39 10° S
Cosmos 1340 2.8 08:36:52 10° NNW 08:40:30 52° W 08:44:09 10° S
USA 215 3.3 08:35:07 10° NE 08:41:42 86° SE 08:47:58 11° SW
Cosmos 1900 4.3 08:37:53 14° SSW 08:42:16 81° WNW 08:47:15 10° NNE
Lacrosse 5 4.1 08:39:42 10° WNW 08:43:02 17° NNW 08:46:21 10° NNE
Cosmos 1400 Rocket 2.7 08:40:33 10° SSW 08:44:18 66° W 08:48:12 10° N
Cosmos 1626 2.0 08:41:05 10° N 08:44:46 79° W 08:48:26 10° S
Cosmos 1674 3.3 08:47:17 10° NNW 08:50:49 36° W 08:54:19 10° SSW
Meteor 1-12 Rocket 4.5 08:45:20 10° SSW 08:50:49 52° WNW 08:56:24 10° N
Cosmos 1315 Rocket 4.2 08:48:02 10° SSE 08:51:53 41° E 08:55:44 10° NNE
BREEZE-M DEB (TANK) 4.2 08:48:23 10° W 08:55:59 39° NNW 08:58:50 10° NE
PSLV R/B 4.1 08:54:13 10° NNE 08:58:28 60° E 09:02:40 10° S
Cosmos 1850 Rocket 4.1 08:55:11 10° SSW 09:00:29 83° ESE 09:05:47 10° NNE
Meteor 2-5 Rocket 4.1 08:58:17 10° N 09:04:14 77° E 09:10:04 10° SSE
Cosmos 468 Rocket 4.0 09:00:05 10° NNW 09:05:24 84° WSW 09:10:39 10° SSE
CZ-4B R/B 4.2 09:01:12 10° N 09:05:36 35° WNW 09:09:54 10° SW
Cosmos 1821 Rocket 4.0 09:00:38 10° S 09:06:47 84° W 09:12:56 10° N
ASTRO E2 4.2 09:05:57 10° SW 09:08:58 21° S 09:12:00 10° SE
Cosmos 1025 Rocket 3.2 09:05:24 10° NNW 09:09:37 52° W 09:13:49 10° S
Cosmos 44 4.0 09:05:25 10° NW 09:10:00 33° WSW 09:14:19 10° S
ARIANE 5 R/B 3.6 09:05:47 10° N 09:10:12 29° WNW 09:14:38 10° SW
Cosmos 1844 Rocket 2.8 09:05:36 10° SSW 09:11:15 89° ESE 09:16:57 10° NNE
BREEZE-M DEB (TANK) 2.4 09:08:46 10° WNW 09:11:38 89° NNE 09:15:30 10° ESE
USA 267 4.4 09:07:32 10° ESE 09:13:44 48° NNE 09:19:57 10° NW
Iridium 51 4.2 09:10:36 10° SSW 09:13:57 48° W 09:17:20 10° N
FENGYUN 3A 3.8 09:12:06 10° N 09:17:30 66° WNW 09:22:50 10° SSW
CZ-3 R/B 3.9 09:20:40 10° SW 09:40:08 32° S 09:46:56 10° ESE
